Tracking 20241 objects as of 26-Jan-2020
HD Live streaming from Space Station
objects crossing your sky now

COSMOS 1141

Track COSMOS 1141 now!
10-day predictions
COSMOS 1141 is classified as:


NORAD ID: 11585
Int'l Code: 1979-090A
Perigee: 960.3 km
Apogee: 1,003.4 km
Inclination: 83.0 °
Period: 104.6 minutes
Semi major axis: 7352 km
RCS: 2.1289 m2 (large)
Launch date: October 16, 1979
Source: Commonwealth of Independent States (former USSR) (CIS)
Launch site: PLESETSK MISSILE AND SPACE COMPLEX (PKMTR)
aabbcc
Your satellite tracking list
Your tracking list is empty




NASA's NSSDC Master Catalog

Two Line Element Set (TLE):
1 11585U 79090A   20025.57848632 +.00000033 +00000-0 +18388-4 0  9995
2 11585 082.9502 124.9125 0029297 189.3156 182.2162 13.76949624004348
Source of the keplerian elements: AFSPC